Home > Weather > Narowal > Past weeks

Flag for Pakistan Past Weather in Narowal, Pakistan — Yesterday and Last 2 Weeks

Now
79 °F

Fog.


Feels Like: 83 °F
Forecast: 78 / 95 °F
Wind: 9 mph from East

Location: Amritsar Airport

Current Time: Jul 27, 2016 at 6:31:05 PM

Latest Report: Jul 27, 2016 at 6:00 PM


Visibility: 3 mi

Pressure: 29.68 "Hg

Humidity: 100%

Dew Point: 79 °F

Location of NarowalLocation

Past Weather in Narowal — Graph

°F

Narowal Temperature Yesterday

Maximum temperature yesterday: 97 °F (at 2:00 PM)
Minimum temperature yesterday: 82 °F (at 4:00 AM)
Average temperature yesterday: 88 °F

High & Low Weather Summary for the Past Weeks

 TemperatureHumidityPressure
High99 °F (Jul 21, 12:30 PM)100% (Jul 12, 10:30 PM)29.74 "Hg (Jul 12, 10:30 PM)
Low73 °F (Jul 17, 4:30 AM)50% (Jul 21, 3:00 PM)29.42 "Hg (Jul 14, 5:00 PM)
Average87 °F89%29.55 "Hg
* Reported Jul 12 5:30 PM — Jul 27 5:00 PM, Narowal, Weather by CustomWeather, © 2016

Note: Actual official high and low records may vary slightly from our data, if they occured in-between our weather recording intervals... More about our weather records

Advertising

Narowal Weather History for the Previous 24 Hours

Scroll right to see more
 ConditionsComfort  
Time TempWeatherWind HumidityBarometerVisibility
5:00 PM
Wed, Jul 27
81 °FFog.9 mph100%29.68 "Hg3 mi
4:30 PM81 °FFog.12 mph100%29.68 "Hg3 mi
4:00 PM82 °FFog.10 mph100%29.71 "Hg2 mi
3:30 PM82 °FFog.10 mph100%29.71 "Hg2 mi
3:00 PM82 °FFog.7 mph100%29.71 "Hg2 mi
2:30 PM81 °FFog.7 mph100%29.71 "Hg2 mi
11:00 AM82 °FThundershowers. More clouds than sun.5 mph100%29.74 "Hg1 mi
7:30 AM82 °FFog.12 mph100%29.68 "Hg1 mi
7:00 AM82 °FFog.12 mph100%29.68 "Hg1 mi
6:30 AM82 °FFog.12 mph100%29.65 "Hg1 mi
6:00 AM82 °FFog.14 mph100%29.65 "Hg1 mi
5:30 AM82 °FFog.15 mph100%29.62 "Hg1 mi
5:00 AM82 °FFog.13 mph100%29.62 "Hg1 mi
4:30 AM84 °FFog.14 mph100%29.62 "Hg1 mi
3:30 AM82 °FFog.13 mph100%29.59 "Hg1 mi
3:00 AM84 °FFog.13 mph100%29.59 "Hg1 mi
2:30 AM84 °FFog.15 mph100%29.59 "Hg1 mi
2:00 AM82 °FFog.14 mph100%29.59 "Hg2 mi
1:30 AM82 °FFog.10 mph100%29.62 "Hg2 mi
1:00 AM84 °FFog.10 mph100%29.62 "Hg2 mi
12:30 AM84 °FFog.10 mph100%29.62 "Hg2 mi
12:00 AM84 °FFog.10 mph100%29.62 "Hg2 mi
11:30 PM
Tue, Jul 26
86 °FFog.12 mph94%29.62 "Hg2 mi
11:00 PM86 °FFog.9 mph89%29.65 "Hg2 mi
10:30 PM86 °FFog.8 mph94%29.62 "Hg2 mi
10:00 PM88 °FFog.5 mph89%29.62 "Hg2 mi
9:30 PM88 °FFog.7 mph84%29.62 "Hg2 mi
7:30 PM88 °FFog.5 mph89%29.56 "Hg3 mi
7:00 PM90 °FFog.3 mph79%29.56 "Hg3 mi
6:30 PM90 °FFog.5 mph79%29.56 "Hg3 mi
6:00 PM91 °FScattered clouds.2 mph75%29.56 "Hg3 mi
Weather by CustomWeather, © 2016

See weather overviewHow to use our weather pages